| time (UTC) | temp C | wind direction | speed KPH | gust KPH | rain 1hr cm | rain 24hr cm | rain mn cm | humidity % | barometer mb |
| 20260903224536 | 32 | 12 | 1.6 | 4.8 | 0.00 | 0.00 | 0.00 | 60 | 975.7 |
| 20260903224022 | 32 | 28 | 1.6 | 4.8 | 0.00 | 0.00 | 0.00 | 60 | 975.7 |
| 20260903223530 | 32 | 28 | 0.0 | 1.6 | 0.00 | 0.00 | 0.00 | 60 | 975.6 |
| 20260903223029 | 32 | 29 | 0.0 | 6.4 | 0.00 | 0.00 | 0.00 | 59 | 975.8 |
| 20260903222520 | 33 | 28 | 0.0 | 6.4 | 0.00 | 0.00 | 0.00 | 59 | 975.8 |
| 20260903222022 | 33 | 30 | 0.0 | 4.8 | 0.00 | 0.00 | 0.00 | 58 | 975.7 |
| 20260903221520 | 33 | 30 | 0.0 | 4.8 | 0.00 | 0.00 | 0.00 | 57 | 975.9 |
| 20260903221019 | 33 | 30 | 0.0 | 4.8 | 0.00 | 0.00 | 0.00 | 57 | 975.9 |
| 20260903220519 | 33 | 30 | 0.0 | 3.2 | 0.00 | 0.00 | 0.00 | 56 | 976.0 |
| 20260903220019 | 33 | 30 | 0.0 | 4.8 | 0.00 | 0.00 | 0.00 | 56 | 976.0 |
| 20260903215519 | 34 | 30 | 1.6 | 4.8 | 0.00 | 0.00 | 0.00 | 55 | 976.0 |
| 20260903215018 | 34 | 32 | 0.0 | 9.7 | 0.00 | 0.00 | 0.00 | 55 | 976.0 |
| 20260903214519 | 35 | 32 | 0.0 | 9.7 | 0.00 | 0.00 | 0.00 | 54 | 976.1 |
| 20260903214018 | 35 | 64 | 0.0 | 9.7 | 0.00 | 0.00 | 0.00 | 53 | 976.0 |
| 20260903213518 | 35 | 271 | 1.6 | 11.3 | 0.00 | 0.00 | 0.00 | 53 | 976.1 |
| 20260903213034 | 35 | 9 | 3.2 | 8.0 | 0.00 | 0.00 | 0.00 | 52 | 976.1 |
| 20260903212517 | 35 | 5 | 1.6 | 12.9 | 0.00 | 0.00 | 0.00 | 52 | 976.1 |
| 20260903212017 | 35 | 26 | 3.2 | 12.9 | 0.00 | 0.00 | 0.00 | 51 | 976.1 |
| 20260903211515 | 35 | 271 | 3.2 | 9.7 | 0.00 | 0.00 | 0.00 | 51 | 976.1 |
| 20260903211014 | 35 | 17 | 1.6 | 12.9 | 0.00 | 0.00 | 0.00 | 52 | 976.2 |
| 20260903210514 | 35 | 18 | 3.2 | 12.9 | 0.00 | 0.00 | 0.00 | 50 | 976.3 |
| 20260903210014 | 36 | 18 | 1.6 | 6.4 | 0.00 | 0.00 | 0.00 | 50 | 976.3 |
| 20260903205514 | 36 | 21 | 3.2 | 8.0 | 0.00 | 0.00 | 0.00 | 50 | 976.3 |
| 20260903205014 | 36 | 32 | 1.6 | 14.5 | 0.00 | 0.00 | 0.00 | 50 | 976.3 |
| 20260903204513 | 36 | 271 | 4.8 | 11.3 | 0.00 | 0.00 | 0.00 | 49 | 976.4 |
| 20260903204014 | 36 | 5 | 4.8 | 12.9 | 0.00 | 0.00 | 0.00 | 48 | 976.5 |
| 20260903203511 | 37 | 270 | 3.2 | 14.5 | 0.00 | 0.00 | 0.00 | 49 | 976.5 |
| 20260903203024 | 36 | 29 | 4.8 | 14.5 | 0.00 | 0.00 | 0.00 | 48 | 976.5 |
| 20260903202508 | 37 | 9 | 3.2 | 11.3 | 0.00 | 0.00 | 0.00 | 48 | 976.6 |
| 20260903202008 | 36 | 34 | 4.8 | 17.7 | 0.00 | 0.00 | 0.00 | 48 | 976.6 |
| 20260903201508 | 36 | 24 | 4.8 | 9.7 | 0.00 | 0.00 | 0.00 | 47 | 976.8 |
| 20260903201007 | 36 | 51 | 3.2 | 12.9 | 0.00 | 0.00 | 0.00 | 48 | 976.8 |
| 20260903200507 | 36 | 13 | 3.2 | 12.9 | 0.00 | 0.00 | 0.00 | 47 | 976.8 |
| 20260903200007 | 36 | 5 | 1.6 | 8.0 | 0.00 | 0.00 | 0.00 | 48 | 976.8 |
| 20260903195505 | 36 | 248 | 3.2 | 6.4 | 0.00 | 0.00 | 0.00 | 47 | 976.8 |
| 20260903195005 | 36 | 248 | 1.6 | 6.4 | 0.00 | 0.00 | 0.00 | 48 | 976.9 |
| 20260903194505 | 35 | 248 | 1.6 | 4.8 | 0.00 | 0.00 | 0.00 | 53 | 976.9 |
| 20260903194004 | 35 | 248 | 1.6 | 4.8 | 0.00 | 0.00 | 0.00 | 48 | 976.9 |
| 20260903193504 | 36 | 246 | 0.0 | 4.8 | 0.00 | 0.00 | 0.00 | 48 | 976.9 |
| 20260903193004 | 36 | 245 | 0.0 | 6.4 | 0.00 | 0.00 | 0.00 | 49 | 977.0 |
| 20260903192504 | 36 | 245 | 1.6 | 6.4 | 0.00 | 0.00 | 0.00 | 47 | 977.1 |
| 20260903192002 | 36 | 235 | 3.2 | 9.7 | 0.00 | 0.00 | 0.00 | 48 | 977.0 |
| 20260903191502 | 36 | 31 | 3.2 | 9.7 | 0.00 | 0.00 | 0.00 | 47 | 977.1 |
| 20260903191002 | 36 | 15 | 1.6 | 12.9 | 0.00 | 0.00 | 0.00 | 48 | 977.2 |
| 20260903190602 | 36 | 15 | 3.2 | 12.9 | 0.00 | 0.00 | 0.00 | 47 | 977.3 |
| 20260903190106 | 36 | 360 | 4.8 | 12.9 | 0.00 | 0.00 | 0.00 | 49 | 977.4 |
| 20260903185600 | 36 | 271 | 3.2 | 9.7 | 0.00 | 0.00 | 0.00 | 48 | 977.4 |
| 20260903185103 | 35 | 28 | 1.6 | 8.0 | 0.00 | 0.00 | 0.00 | 49 | 977.5 |
| 20260903184559 | 35 | 28 | 1.6 | 8.0 | 0.00 | 0.00 | 0.00 | 49 | 977.5 |
| 20260903184058 | 35 | 34 | 1.6 | 8.0 | 0.00 | 0.00 | 0.00 | 49 | 977.7 |
| 20260903183557 | 36 | 35 | 3.2 | 12.9 | 0.00 | 0.00 | 0.00 | 48 | 977.6 |
| 20260903183101 | 36 | 271 | 4.8 | 12.9 | 0.00 | 0.00 | 0.00 | 46 | 977.7 |
| 20260903182557 | 37 | 26 | 3.2 | 11.3 | 0.00 | 0.00 | 0.00 | 47 | 977.7 |
| 20260903182055 | 37 | 21 | 3.2 | 11.3 | 0.00 | 0.00 | 0.00 | 47 | 977.7 |
| 20260903181555 | 37 | 50 | 1.6 | 9.7 | 0.00 | 0.00 | 0.00 | 46 | 977.8 |
| 20260903181053 | 36 | 42 | 4.8 | 9.7 | 0.00 | 0.00 | 0.00 | 46 | 977.7 |
| 20260903180554 | 37 | 270 | 4.8 | 9.7 | 0.00 | 0.00 | 0.00 | 47 | 977.9 |
| 20260903180053 | 36 | 270 | 1.6 | 9.7 | 0.00 | 0.00 | 0.00 | 50 | 977.9 |
| 20260903175554 | 36 | 270 | 3.2 | 9.7 | 0.00 | 0.00 | 0.00 | 47 | 978.0 |
| 20260903175051 | 36 | 270 | 1.6 | 8.0 | 0.00 | 0.00 | 0.00 | 50 | 978.1 |
| 20260903174549 | 36 | 270 | 1.6 | 8.0 | 0.00 | 0.00 | 0.00 | 47 | 978.2 |
| 20260903174047 | 35 | 271 | 0.0 | 9.7 | 0.00 | 0.00 | 0.00 | 49 | 978.2 |
| 20260903173546 | 35 | 250 | 1.6 | 6.4 | 0.00 | 0.00 | 0.00 | 49 | 978.3 |
| 20260903173046 | 35 | 242 | 1.6 | 8.0 | 0.00 | 0.00 | 0.00 | 50 | 978.3 |
| 20260903172546 | 35 | 242 | 1.6 | 8.0 | 0.00 | 0.00 | 0.00 | 51 | 978.2 |
| 20260903172046 | 35 | 242 | 0.0 | 4.8 | 0.00 | 0.00 | 0.00 | 52 | 978.3 |
| 20260903171544 | 35 | 242 | 0.0 | 6.4 | 0.00 | 0.00 | 0.00 | 53 | 978.4 |
| 20260903171044 | 35 | 240 | 1.6 | 4.8 | 0.00 | 0.00 | 0.00 | 54 | 978.4 |
| 20260903170548 | 33 | 240 | 0.0 | 0.0 | 0.00 | 0.00 | 0.00 | 55 | 978.5 |
| 20260903170048 | 33 | 240 | 0.0 | 4.8 | 0.00 | 0.00 | 0.00 | 56 | 978.5 |
| 20260903165542 | 33 | 240 | 0.0 | 8.0 | 0.00 | 0.00 | 0.00 | 54 | 978.5 |
| 20260903165042 | 34 | 240 | 0.0 | 8.0 | 0.00 | 0.00 | 0.00 | 54 | 978.6 |
| 20260903164542 | 35 | 275 | 0.0 | 4.8 | 0.00 | 0.00 | 0.00 | 52 | 978.6 |
| 20260903164042 | 35 | 271 | 1.6 | 4.8 | 0.00 | 0.00 | 0.00 | 53 | 978.6 |
| 20260903163542 | 35 | 271 | 1.6 | 6.4 | 0.00 | 0.00 | 0.00 | 54 | 978.6 |
| 20260903163043 | 35 | 271 | 3.2 | 14.5 | 0.00 | 0.00 | 0.00 | 54 | 978.7 |
| 20260903162540 | 35 | 360 | 4.8 | 14.5 | 0.00 | 0.00 | 0.00 | 52 | 978.8 |
| 20260903162039 | 35 | 19 | 3.2 | 8.0 | 0.00 | 0.00 | 0.00 | 56 | 978.8 |
| 20260903161538 | 35 | 34 | 1.6 | 11.3 | 0.00 | 0.00 | 0.00 | 54 | 978.9 |
| 20260903161040 | 35 | 24 | 3.2 | 8.0 | 0.00 | 0.00 | 0.00 | 56 | 979.0 |
| 20260903160536 | 35 | 270 | 1.6 | 4.8 | 0.00 | 0.00 | 0.00 | 54 | 979.0 |
| 20260903160042 | 34 | 270 | 0.0 | 14.5 | 0.00 | 0.00 | 0.00 | 57 | 979.1 |
| 20260903155535 | 34 | 270 | 4.8 | 14.5 | 0.00 | 0.00 | 0.00 | 56 | 979.0 |
| 20260903155035 | 34 | 47 | 1.6 | 6.4 | 0.00 | 0.00 | 0.00 | 57 | 979.1 |
| 20260903154533 | 34 | 55 | 1.6 | 9.7 | 0.00 | 0.00 | 0.00 | 57 | 979.2 |
| 20260903154038 | 33 | 270 | 1.6 | 9.7 | 0.00 | 0.00 | 0.00 | 58 | 979.2 |
| 20260903153534 | 33 | 5 | 3.2 | 9.7 | 0.00 | 0.00 | 0.00 | 59 | 979.2 |
| 20260903153031 | 33 | 20 | 3.2 | 9.7 | 0.00 | 0.00 | 0.00 | 59 | 979.3 |
| 20260903152530 | 33 | 271 | 3.2 | 9.7 | 0.00 | 0.00 | 0.00 | 59 | 979.3 |
| 20260903152032 | 33 | 197 | 3.2 | 9.7 | 0.00 | 0.00 | 0.00 | 59 | 979.3 |
| 20260903151527 | 33 | 12 | 4.8 | 11.3 | 0.00 | 0.00 | 0.00 | 61 | 979.2 |
| 20260903151027 | 33 | 23 | 1.6 | 9.7 | 0.00 | 0.00 | 0.00 | 61 | 979.3 |
| 20260903150526 | 33 | 22 | 3.2 | 9.7 | 0.00 | 0.00 | 0.00 | 62 | 979.3 |
| 20260903150028 | 32 | 19 | 0.0 | 6.4 | 0.00 | 0.00 | 0.00 | 62 | 979.4 |
| 20260903145524 | 32 | 22 | 3.2 | 6.4 | 0.00 | 0.00 | 0.00 | 63 | 979.3 |
| 20260903145023 | 32 | 22 | 0.0 | 9.7 | 0.00 | 0.00 | 0.00 | 64 | 979.5 |
| 20260903144533 | 32 | 23 | 1.6 | 12.9 | 0.00 | 0.00 | 0.00 | 64 | 979.5 |
| 20260903144020 | 31 | 273 | 1.6 | 9.7 | 0.00 | 0.00 | 0.00 | 65 | 979.5 |
| 20260903143521 | 31 | 273 | 4.8 | 9.7 | 0.00 | 0.00 | 0.00 | 66 | 979.4 |
| 20260903143018 | 31 | 5 | 3.2 | 8.0 | 0.00 | 0.00 | 0.00 | 66 | 979.5 |
| 20260903142519 | 31 | 9 | 3.2 | 8.0 | 0.00 | 0.00 | 0.00 | 66 | 979.5 |
| 20260903142017 | 31 | 270 | 3.2 | 9.7 | 0.00 | 0.00 | 0.00 | 67 | 979.4 |
| 20260903141514 | 30 | 270 | 1.6 | 9.7 | 0.00 | 0.00 | 0.00 | 68 | 979.5 |
| 20260903141014 | 30 | 271 | 1.6 | 9.7 | 0.00 | 0.00 | 0.00 | 69 | 979.5 |
| 20260903140515 | 30 | 273 | 1.6 | 9.7 | 0.00 | 0.00 | 0.00 | 70 | 979.4 |
| 20260903140012 | 30 | 182 | 1.6 | 8.0 | 0.00 | 0.00 | 0.00 | 70 | 979.4 |
| 20260903135510 | 29 | 21 | 3.2 | 8.0 | 0.00 | 0.00 | 0.00 | 70 | 979.4 |
| 20260903135009 | 29 | 5 | 0.0 | 6.4 | 0.00 | 0.00 | 0.00 | 72 | 979.4 |
| 20260903134507 | 28 | 270 | 0.0 | 8.0 | 0.00 | 0.00 | 0.00 | 73 | 979.4 |
| 20260903134007 | 28 | 360 | 3.2 | 11.3 | 0.00 | 0.00 | 0.00 | 73 | 979.5 |
| 20260903133507 | 28 | 360 | 1.6 | 11.3 | 0.00 | 0.00 | 0.00 | 75 | 979.5 |
| 20260903133008 | 27 | 28 | 4.8 | 11.3 | 0.00 | 0.00 | 0.00 | 75 | 979.6 |
| 20260903132503 | 27 | 32 | 1.6 | 14.5 | 0.00 | 0.00 | 0.00 | 76 | 979.7 |
| 20260903132000 | 27 | 19 | 4.8 | 9.7 | 0.00 | 0.00 | 0.00 | 77 | 979.8 |
| 20260903131611 | 27 | 360 | 1.6 | 9.7 | 0.00 | 0.00 | 0.00 | 78 | 979.8 |
| 20260903131058 | 27 | 13 | 3.2 | 14.5 | 0.00 | 0.00 | 0.00 | 79 | 979.9 |
| 20260903130557 | 26 | 14 | 4.8 | 14.5 | 0.00 | 0.00 | 0.00 | 80 | 979.9 |
| 20260903130057 | 26 | 11 | 3.2 | 9.7 | 0.00 | 0.00 | 0.00 | 81 | 979.9 |
| 20260903125554 | 26 | 271 | 1.6 | 6.4 | 0.00 | 0.00 | 0.00 | 82 | 979.9 |
| 20260903125056 | 25 | 272 | 0.0 | 6.4 | 0.00 | 0.00 | 0.00 | 84 | 979.9 |
| 20260903124552 | 25 | 272 | 1.6 | 6.4 | 0.00 | 0.00 | 0.00 | 85 | 980.0 |
| 20260903124051 | 25 | 272 | 1.6 | 6.4 | 0.00 | 0.00 | 0.00 | 86 | 980.0 |
| 20260903123550 | 24 | 272 | 0.0 | 4.8 | 0.00 | 0.00 | 0.00 | 87 | 980.0 |
| 20260903123057 | 24 | 273 | 1.6 | 4.8 | 0.00 | 0.00 | 0.00 | 88 | 979.9 |
| 20260903122550 | 23 | 273 | 0.0 | 4.8 | 0.00 | 0.00 | 0.00 | 89 | 980.0 |
| 20260903122050 | 23 | 273 | 1.6 | 6.4 | 0.00 | 0.00 | 0.00 | 90 | 979.9 |
| 20260903121612 | 23 | 274 | 0.0 | 6.4 | 0.00 | 0.00 | 0.00 | 91 | 979.9 |
| 20260903121052 | 23 | 274 | 0.0 | 0.0 | 0.00 | 0.00 | 0.00 | 91 | 979.9 |
| 20260903120551 | 22 | 274 | 0.0 | 0.0 | 0.00 | 0.00 | 0.00 | 91 | 979.9 |
| 20260903120048 | 22 | 274 | 0.0 | 0.0 | 0.00 | 0.00 | 0.00 | 92 | 979.9 |
| 20260903115547 | 22 | 274 | 0.0 | 0.0 | 0.00 | 0.00 | 0.00 | 92 | 979.9 |
| 20260903115047 | 22 | 274 | 0.0 | 0.0 | 0.00 | 0.00 | 0.00 | 92 | 979.9 |
| 20260903114550 | 22 | 274 | 0.0 | 0.0 | 0.00 | 0.00 | 0.00 | 92 | 979.9 |
| 20260903114047 | 22 | 274 | 0.0 | 0.0 | 0.00 | 0.00 | 0.00 | 92 | 979.8 |
| 20260903113545 | 22 | 274 | 0.0 | 0.0 | 0.00 | 0.00 | 0.00 | 92 | 979.7 |
| 20260903113048 | 22 | 274 | 0.0 | 0.0 | 0.00 | 0.00 | 0.00 | 92 | 979.6 |
| 20260903112546 | 22 | 274 | 0.0 | 0.0 | 0.00 | 0.00 | 0.00 | 92 | 979.6 |
| 20260903112044 | 22 | 274 | 0.0 | 0.0 | 0.00 | 0.00 | 0.00 | 92 | 979.6 |
| 20260903111546 | 22 | 274 | 0.0 | 0.0 | 0.00 | 0.00 | 0.00 | 92 | 979.4 |
| 20260903111043 | 22 | 274 | 0.0 | 0.0 | 0.00 | 0.00 | 0.00 | 92 | 979.4 |
| 20260903110545 | 22 | 274 | 0.0 | 0.0 | 0.00 | 0.00 | 0.00 | 92 | 979.4 |
| 20260903110043 | 22 | 274 | 0.0 | 0.0 | 0.00 | 0.00 | 0.00 | 92 | 979.3 |
| 20260903105541 | 22 | 274 | 0.0 | 0.0 | 0.00 | 0.00 | 0.00 | 92 | 979.2 |
| 20260903105041 | 22 | 274 | 0.0 | 0.0 | 0.00 | 0.00 | 0.00 | 93 | 979.1 |
| 20260903104551 | 21 | 274 | 0.0 | 0.0 | 0.00 | 0.00 | 0.00 | 92 | 979.1 |
| 20260903104039 | 21 | 274 | 0.0 | 0.0 | 0.00 | 0.00 | 0.00 | 92 | 979.0 |
| 20260903103539 | 21 | 274 | 0.0 | 0.0 | 0.00 | 0.00 | 0.00 | 92 | 979.0 |
| 20260903103039 | 21 | 274 | 0.0 | 0.0 | 0.00 | 0.00 | 0.00 | 92 | 978.9 |
| 20260903102539 | 21 | 274 | 0.0 | 0.0 | 0.00 | 0.00 | 0.00 | 92 | 978.9 |
| 20260903102038 | 21 | 274 | 0.0 | 1.6 | 0.00 | 0.00 | 0.00 | 92 | 979.0 |
| 20260903101547 | 22 | 274 | 0.0 | 1.6 | 0.00 | 0.00 | 0.00 | 92 | 979.0 |
| 20260903101038 | 21 | 274 | 0.0 | 0.0 | 0.00 | 0.00 | 0.00 | 92 | 978.9 |
| 20260903100538 | 21 | 274 | 0.0 | 0.0 | 0.00 | 0.00 | 0.00 | 92 | 978.8 |
| 20260903100044 | 22 | 274 | 0.0 | 0.0 | 0.00 | 0.00 | 0.00 | 92 | 978.8 |
| 20260903095538 | 22 | 274 | 0.0 | 0.0 | 0.00 | 0.00 | 0.00 | 92 | 978.7 |
| 20260903095040 | 22 | 274 | 0.0 | 0.0 | 0.00 | 0.00 | 0.00 | 92 | 978.8 |
| 20260903094537 | 22 | 274 | 0.0 | 0.0 | 0.00 | 0.00 | 0.00 | 92 | 978.8 |
| 20260903094037 | 22 | 274 | 0.0 | 0.0 | 0.00 | 0.00 | 0.00 | 92 | 978.9 |
| 20260903093539 | 22 | 274 | 0.0 | 0.0 | 0.00 | 0.00 | 0.00 | 92 | 978.9 |
| 20260903093037 | 22 | 274 | 0.0 | 0.0 | 0.00 | 0.00 | 0.00 | 92 | 978.9 |
| 20260903092536 | 22 | 274 | 0.0 | 1.6 | 0.00 | 0.00 | 0.00 | 91 | 978.8 |
| 20260903092034 | 22 | 274 | 0.0 | 1.6 | 0.00 | 0.00 | 0.00 | 91 | 978.8 |
| 20260903091549 | 22 | 274 | 0.0 | 1.6 | 0.00 | 0.00 | 0.00 | 91 | 978.8 |
| 20260903091034 | 22 | 274 | 0.0 | 1.6 | 0.00 | 0.00 | 0.00 | 91 | 978.8 |
| 20260903090534 | 22 | 274 | 0.0 | 1.6 | 0.00 | 0.00 | 0.00 | 91 | 978.8 |
| 20260903090035 | 22 | 274 | 0.0 | 0.0 | 0.00 | 0.00 | 0.00 | 91 | 978.6 |
| 20260903085535 | 22 | 274 | 0.0 | 0.0 | 0.00 | 0.00 | 0.00 | 91 | 978.7 |
| 20260903085035 | 22 | 274 | 0.0 | 0.0 | 0.00 | 0.00 | 0.00 | 91 | 978.7 |
| 20260903084534 | 22 | 274 | 0.0 | 3.2 | 0.00 | 0.00 | 0.00 | 91 | 978.6 |
| 20260903084033 | 22 | 274 | 0.0 | 0.0 | 0.00 | 0.00 | 0.00 | 91 | 978.6 |
| 20260903083531 | 22 | 274 | 0.0 | 0.0 | 0.00 | 0.00 | 0.00 | 91 | 978.6 |
| 20260903083032 | 22 | 274 | 0.0 | 0.0 | 0.00 | 0.00 | 0.00 | 91 | 978.7 |
| 20260903082532 | 22 | 274 | 0.0 | 3.2 | 0.00 | 0.00 | 0.00 | 91 | 978.7 |
| 20260903082031 | 22 | 274 | 0.0 | 4.8 | 0.00 | 0.00 | 0.00 | 91 | 978.7 |
| 20260903081536 | 22 | 274 | 0.0 | 3.2 | 0.00 | 0.00 | 0.00 | 91 | 978.7 |
| 20260903081034 | 22 | 274 | 0.0 | 0.0 | 0.00 | 0.00 | 0.00 | 90 | 978.7 |
| 20260903080532 | 22 | 274 | 0.0 | 0.0 | 0.00 | 0.00 | 0.00 | 91 | 978.8 |
| 20260903080030 | 22 | 274 | 0.0 | 0.0 | 0.00 | 0.00 | 0.00 | 90 | 978.8 |
| 20260903075533 | 22 | 274 | 0.0 | 0.0 | 0.00 | 0.00 | 0.00 | 90 | 978.9 |
| 20260903075028 | 22 | 274 | 0.0 | 0.0 | 0.00 | 0.00 | 0.00 | 90 | 978.8 |
| 20260903074533 | 22 | 274 | 0.0 | 0.0 | 0.00 | 0.00 | 0.00 | 90 | 978.8 |
| 20260903074028 | 22 | 274 | 0.0 | 0.0 | 0.00 | 0.00 | 0.00 | 90 | 978.8 |
| 20260903073528 | 23 | 274 | 0.0 | 0.0 | 0.00 | 0.00 | 0.00 | 90 | 978.8 |
| 20260903073034 | 23 | 274 | 0.0 | 0.0 | 0.00 | 0.00 | 0.00 | 90 | 978.8 |
| 20260903072527 | 23 | 274 | 0.0 | 0.0 | 0.00 | 0.00 | 0.00 | 90 | 978.9 |
| 20260903072027 | 23 | 274 | 0.0 | 0.0 | 0.00 | 0.00 | 0.00 | 89 | 978.8 |
| 20260903071527 | 23 | 274 | 0.0 | 1.6 | 0.00 | 0.00 | 0.00 | 89 | 978.7 |
| 20260903071027 | 23 | 274 | 0.0 | 3.2 | 0.00 | 0.00 | 0.00 | 89 | 978.7 |
| 20260903070525 | 23 | 274 | 0.0 | 3.2 | 0.00 | 0.00 | 0.00 | 89 | 978.6 |
| 20260903070025 | 23 | 274 | 0.0 | 0.0 | 0.00 | 0.00 | 0.00 | 89 | 978.6 |
| 20260903065525 | 23 | 274 | 0.0 | 0.0 | 0.00 | 0.00 | 0.00 | 89 | 978.5 |
| 20260903065025 | 23 | 274 | 0.0 | 0.0 | 0.00 | 0.00 | 0.00 | 89 | 978.6 |
| 20260903064524 | 23 | 274 | 0.0 | 3.2 | 0.00 | 0.00 | 0.00 | 89 | 978.6 |
| 20260903064025 | 23 | 274 | 0.0 | 3.2 | 0.00 | 0.00 | 0.00 | 88 | 978.6 |
| 20260903063524 | 23 | 274 | 1.6 | 3.2 | 0.00 | 0.00 | 0.00 | 88 | 978.6 |
| 20260903063024 | 23 | 274 | 1.6 | 3.2 | 0.00 | 0.00 | 0.00 | 88 | 978.5 |
| 20260903062522 | 23 | 274 | 0.0 | 1.6 | 0.00 | 0.00 | 0.00 | 88 | 978.5 |
| 20260903062025 | 23 | 274 | 0.0 | 0.0 | 0.00 | 0.00 | 0.00 | 88 | 978.6 |
| 20260903061556 | 23 | 274 | 0.0 | 0.0 | 0.00 | 0.00 | 0.00 | 88 | 978.6 |
| 20260903061021 | 23 | 274 | 0.0 | 0.0 | 0.00 | 0.00 | 0.00 | 88 | 978.6 |
| 20260903060521 | 23 | 274 | 0.0 | 0.0 | 0.00 | 0.00 | 0.00 | 88 | 978.6 |
| 20260903060020 | 23 | 274 | 0.0 | 0.0 | 0.00 | 0.00 | 0.00 | 88 | 978.7 |
| 20260903055520 | 23 | 274 | 0.0 | 0.0 | 0.00 | 0.00 | 0.00 | 88 | 978.6 |
| 20260903055020 | 23 | 272 | 0.0 | 0.0 | 0.00 | 0.00 | 0.00 | 88 | 978.6 |
| 20260903054521 | 23 | 272 | 0.0 | 0.0 | 0.00 | 0.00 | 0.00 | 87 | 978.6 |
| 20260903054020 | 23 | 272 | 0.0 | 0.0 | 0.00 | 0.00 | 0.00 | 88 | 978.6 |
| 20260903053519 | 23 | 272 | 0.0 | 0.0 | 0.00 | 0.00 | 0.00 | 87 | 978.5 |
| 20260903053019 | 23 | 272 | 0.0 | 0.0 | 0.00 | 0.00 | 0.00 | 87 | 978.6 |
| 20260903052524 | 23 | 272 | 0.0 | 0.0 | 0.00 | 0.00 | 0.00 | 87 | 978.6 |
| 20260903052018 | 23 | 272 | 0.0 | 0.0 | 0.00 | 0.00 | 0.00 | 87 | 978.6 |
| 20260903051517 | 23 | 272 | 0.0 | 0.0 | 0.00 | 0.00 | 0.00 | 87 | 978.6 |
| 20260903051016 | 23 | 272 | 0.0 | 0.0 | 0.00 | 0.00 | 0.00 | 87 | 978.6 |
| 20260903050515 | 23 | 272 | 0.0 | 0.0 | 0.00 | 0.00 | 0.00 | 87 | 978.6 |
| 20260903050018 | 24 | 272 | 0.0 | 0.0 | 0.00 | 0.00 | 0.00 | 86 | 978.6 |
| 20260903045514 | 24 | 272 | 0.0 | 0.0 | 0.00 | 0.00 | 0.00 | 86 | 978.6 |
| 20260903045016 | 24 | 272 | 0.0 | 0.0 | 0.00 | 0.00 | 0.00 | 86 | 978.6 |
| 20260903044515 | 24 | 272 | 0.0 | 0.0 | 0.00 | 0.00 | 0.00 | 86 | 978.6 |
| 20260903044016 | 24 | 272 | 0.0 | 0.0 | 0.00 | 0.00 | 0.00 | 86 | 978.7 |
| 20260903043512 | 24 | 272 | 0.0 | 0.0 | 0.00 | 0.00 | 0.00 | 86 | 978.6 |
| 20260903043016 | 24 | 272 | 0.0 | 0.0 | 0.00 | 0.00 | 0.00 | 85 | 978.7 |
| 20260903042512 | 24 | 272 | 0.0 | 0.0 | 0.00 | 0.00 | 0.00 | 85 | 978.7 |
| 20260903042009 | 25 | 272 | 0.0 | 0.0 | 0.00 | 0.00 | 0.00 | 85 | 978.8 |
| 20260903041511 | 25 | 272 | 0.0 | 0.0 | 0.00 | 0.00 | 0.00 | 84 | 978.9 |
| 20260903041012 | 25 | 272 | 0.0 | 0.0 | 0.00 | 0.00 | 0.00 | 84 | 978.9 |
| 20260903040507 | 25 | 272 | 0.0 | 0.0 | 0.00 | 0.00 | 0.00 | 84 | 978.9 |
| 20260903040011 | 25 | 272 | 0.0 | 0.0 | 0.00 | 0.00 | 0.00 | 83 | 979.0 |
| 20260903035505 | 25 | 272 | 0.0 | 0.0 | 0.00 | 0.00 | 0.00 | 83 | 978.9 |
| 20260903035005 | 25 | 272 | 0.0 | 0.0 | 0.00 | 0.00 | 0.00 | 83 | 978.9 |
| 20260903034505 | 25 | 272 | 0.0 | 0.0 | 0.00 | 0.00 | 0.00 | 83 | 978.9 |
| 20260903034005 | 25 | 272 | 0.0 | 0.0 | 0.00 | 0.00 | 0.00 | 82 | 978.8 |
| 20260903033504 | 25 | 272 | 0.0 | 0.0 | 0.00 | 0.00 | 0.00 | 82 | 978.9 |
| 20260903033005 | 25 | 272 | 0.0 | 0.0 | 0.00 | 0.00 | 0.00 | 82 | 978.9 |
| 20260903032506 | 25 | 272 | 0.0 | 0.0 | 0.00 | 0.00 | 0.00 | 82 | 978.9 |
| 20260903032004 | 25 | 272 | 0.0 | 3.2 | 0.00 | 0.00 | 0.00 | 82 | 978.9 |
| 20260903031504 | 25 | 272 | 0.0 | 3.2 | 0.00 | 0.00 | 0.00 | 82 | 979.0 |
| 20260903031004 | 26 | 272 | 0.0 | 0.0 | 0.00 | 0.00 | 0.00 | 81 | 978.9 |
| 20260903030508 | 26 | 272 | 0.0 | 0.0 | 0.00 | 0.00 | 0.00 | 81 | 978.9 |
| 20260903030004 | 26 | 272 | 0.0 | 3.2 | 0.00 | 0.00 | 0.00 | 81 | 978.9 |
| 20260903025504 | 26 | 272 | 0.0 | 3.2 | 0.00 | 0.00 | 0.00 | 81 | 978.9 |
| 20260903025003 | 26 | 272 | 0.0 | 0.0 | 0.00 | 0.00 | 0.00 | 80 | 978.9 |
| 20260903024503 | 26 | 272 | 0.0 | 0.0 | 0.00 | 0.00 | 0.00 | 80 | 978.9 |
| 20260903024003 | 26 | 272 | 0.0 | 1.6 | 0.00 | 0.00 | 0.00 | 79 | 978.9 |
| 20260903023504 | 26 | 272 | 0.0 | 3.2 | 0.00 | 0.00 | 0.00 | 79 | 978.9 |
| 20260903023002 | 26 | 272 | 0.0 | 3.2 | 0.00 | 0.00 | 0.00 | 79 | 978.7 |
| 20260903022504 | 26 | 272 | 0.0 | 0.0 | 0.00 | 0.00 | 0.00 | 79 | 978.6 |
| 20260903022003 | 26 | 272 | 0.0 | 0.0 | 0.00 | 0.00 | 0.00 | 79 | 978.6 |
| 20260903021502 | 27 | 272 | 0.0 | 0.0 | 0.00 | 0.00 | 0.00 | 79 | 978.6 |
| 20260903021002 | 27 | 272 | 0.0 | 1.6 | 0.00 | 0.00 | 0.00 | 78 | 978.6 |
| 20260903020502 | 27 | 272 | 0.0 | 0.0 | 0.00 | 0.00 | 0.00 | 78 | 978.6 |
| 20260903020005 | 27 | 272 | 0.0 | 0.0 | 0.00 | 0.00 | 0.00 | 77 | 978.6 |
| 20260903015502 | 27 | 272 | 0.0 | 0.0 | 0.00 | 0.00 | 0.00 | 77 | 978.5 |
| 20260903015001 | 27 | 272 | 0.0 | 0.0 | 0.00 | 0.00 | 0.00 | 76 | 978.6 |
| 20260903014500 | 27 | 272 | 0.0 | 0.0 | 0.00 | 0.00 | 0.00 | 75 | 978.6 |
| 20260903014101 | 27 | 272 | 0.0 | 0.0 | 0.00 | 0.00 | 0.00 | 75 | 978.6 |
| 20260903013604 | 28 | 272 | 0.0 | 0.0 | 0.00 | 0.00 | 0.00 | 74 | 978.5 |
| 20260903013111 | 28 | 272 | 0.0 | 0.0 | 0.00 | 0.00 | 0.00 | 73 | 978.5 |
| 20260903012559 | 28 | 272 | 0.0 | 0.0 | 0.00 | 0.00 | 0.00 | 73 | 978.5 |
| 20260903012100 | 28 | 272 | 0.0 | 0.0 | 0.00 | 0.00 | 0.00 | 72 | 978.4 |
| 20260903011610 | 28 | 272 | 0.0 | 1.6 | 0.00 | 0.00 | 0.00 | 72 | 978.4 |
| 20260903011100 | 28 | 272 | 0.0 | 3.2 | 0.00 | 0.00 | 0.00 | 71 | 978.4 |
| 20260903010602 | 28 | 272 | 0.0 | 3.2 | 0.00 | 0.00 | 0.00 | 71 | 978.4 |
| 20260903005559 | 28 | 272 | 1.6 | 4.8 | 0.00 | 0.00 | 0.00 | 71 | 978.6 |
| 20260903005100 | 29 | 272 | 0.0 | 4.8 | 0.00 | 0.00 | 0.00 | 72 | 978.6 |
| 20260903004558 | 29 | 272 | 1.6 | 4.8 | 0.00 | 0.00 | 0.00 | 72 | 978.5 |
| 20260903004058 | 29 | 272 | 1.6 | 3.2 | 0.00 | 0.00 | 0.00 | 71 | 978.5 |
| 20260903003600 | 29 | 272 | 0.0 | 3.2 | 0.00 | 0.00 | 0.00 | 70 | 978.4 |
| 20260903003059 | 30 | 272 | 0.0 | 3.2 | 0.00 | 0.00 | 0.00 | 70 | 978.4 |
| 20260903002557 | 30 | 272 | 1.6 | 3.2 | 0.00 | 0.00 | 0.00 | 69 | 978.4 |
| 20260903002059 | 30 | 272 | 0.0 | 3.2 | 0.00 | 0.00 | 0.00 | 69 | 978.4 |
| 20260903001557 | 30 | 272 | 1.6 | 3.2 | 0.00 | 0.00 | 0.00 | 69 | 978.4 |
| 20260903001057 | 30 | 272 | 0.0 | 3.2 | 0.00 | 0.00 | 0.00 | 67 | 978.5 |
| 20260903000557 | 30 | 272 | 0.0 | 0.0 | 0.00 | 0.00 | 0.00 | 66 | 978.5 |
| 20260903000100 | 31 | 272 | 0.0 | 0.0 | 0.00 | 0.00 | 0.00 | 65 | 978.3 |
| 20260902235600 | 31 | 272 | 0.0 | 0.0 | 0.00 | 0.00 | 0.00 | 64 | 978.3 |
| 20260902235057 | 31 | 272 | 0.0 | 0.0 | 0.00 | 0.00 | 0.00 | 64 | 978.2 |
| 20260902234601 | 31 | 272 | 0.0 | 0.0 | 0.00 | 0.00 | 0.00 | 64 | 978.1 |
| 20260902234057 | 31 | 272 | 0.0 | 0.0 | 0.00 | 0.00 | 0.00 | 64 | 978.1 |
| 20260902233556 | 31 | 272 | 0.0 | 0.0 | 0.00 | 0.00 | 0.00 | 64 | 978.2 |
| 20260902233058 | 32 | 272 | 0.0 | 1.6 | 0.00 | 0.00 | 0.00 | 64 | 978.0 |
| 20260902232556 | 32 | 272 | 0.0 | 1.6 | 0.00 | 0.00 | 0.00 | 64 | 978.0 |
| 20260902232055 | 32 | 272 | 0.0 | 1.6 | 0.00 | 0.00 | 0.00 | 64 | 977.9 |
| 20260902231557 | 32 | 272 | 0.0 | 0.0 | 0.00 | 0.00 | 0.00 | 64 | 978.0 |
| 20260902231056 | 32 | 272 | 0.0 | 0.0 | 0.00 | 0.00 | 0.00 | 63 | 978.0 |
| 20260902230555 | 32 | 272 | 0.0 | 3.2 | 0.00 | 0.00 | 0.00 | 63 | 978.0 |
| 20260902230105 | 32 | 272 | 0.0 | 3.2 | 0.00 | 0.00 | 0.00 | 62 | 978.0 |
| 20260902225555 | 32 | 272 | 0.0 | 3.2 | 0.00 | 0.00 | 0.00 | 62 | 977.9 |
| 20260902225055 | 32 | 272 | 0.0 | 3.2 | 0.00 | 0.00 | 0.00 | 61 | 977.9 |